Regional Weather Roundup
Issued by NWS Charleston, SC

Current Version | Previous Version | Text Only | Print | Product List | Glossary On
Versions: 1 2 3 4 5 6 7 8 9 10 11 12 13 14 15 16 17 18 19 20 21 22 23 24 25 26 27 28 29 30 31 32 33 34 35 36 37 38 39 40 41 42 43 44 45 46 47 48 49 50
000 ASUS42 KCHS 050326 RWRCHS Regional Weather Roundup National Weather Service Charleston SC 1000 PM EST THU MAR 04 2021 NOTE: "fair" indicates few or no clouds below 12,000 feet with no significant weather and/or obstructions to visibility. Not all stations are quality controlled. Use data with caution, especially dewpoint observations. SCZ027-030-031-034>040-042>050-050400- ...Southeast South Carolina... CITY SKY/WX TMP DP RH WIND PRES REMARKS N Charleston CLEAR 52 40 63 CALM 29.96S Waterfront Prk N/A 57 44 62 SW6 29.82R Mount Pleasant FAIR 54 41 62 CALM 29.96S Johns Island FAIR 54 41 62 SW3 29.96F Pinopolis N/A 57 43 58 SW6 29.86R Moncks Corner FAIR 45 41 87 CALM 29.95S Summerville NOT AVBL Beaufort MCAS CLEAR 51 42 71 S3 29.97S Beaufort Arpt FAIR 52 43 71 CALM 29.97S Hilton Head Is CLEAR 52 46 82 SW5 29.99S Walterboro CLEAR 48 41 76 CALM 29.98R Allendale FAIR 48 39 71 CALM 29.96S ...Southern Midlands and Pee Dee... CITY SKY/WX TMP DP RH WIND PRES REMARKS Georgetown FAIR 46 39 76 CALM 29.96R Kingstree FAIR 43 39 87 CALM 29.96S Orangeburg CLEAR 51 38 60 CALM 29.97R Barnwell MOCLDY 48 37 66 CALM 29.98R Aiken FAIR 49 35 57 N5 30.00S Manning FAIR 45 37 76 N3 29.96R Columbia CLEAR 51 34 52 W3 29.97R Sumter CLEAR 58 30 35 NW3 29.96R Florence CLEAR 58 27 30 NW6 29.95R Myrtle Beach CLEAR 53 44 71 CALM 29.95R N Myrtle Beach CLEAR 47 45 93 CALM 29.93R $$ GAZ063-065-086>088-099>101-113>116-118-119-134>141-150-050400- ...Southeast Georgia... CITY SKY/WX TMP DP RH WIND PRES REMARKS Savannah Arpt CLEAR 54 45 71 CALM 29.99R Hunter AAF CLEAR 50 45 81 CALM 29.96S Fort Stewart CLEAR 49 44 81 CALM 29.97R Statesboro CLEAR 46 41 83 CALM 29.98S Sylvania CLEAR 49 45 86 CALM 29.99S Claxton FAIR 48 47 93 CALM 29.99S Millen FAIR 47 42 82 CALM 29.97F Metter FAIR 49 44 83 CALM 29.98S Reidsville FAIR 49 42 76 CALM 29.99S ...CSRA, Central and far Southeast Georgia... CITY SKY/WX TMP DP RH WIND PRES REMARKS Thomson CLEAR 52 36 54 NE6 30.01R Augusta-Bush CLEAR 51 42 71 NE8 29.97R Augusta-Daniel CLEAR 60 32 34 N9 29.98R Swainsboro FAIR 46 41 81 NW5 30.00S Vidalia CLEAR 54 41 62 CALM 30.00S Eastman FAIR 48 43 80 CALM 30.02R Hazlehurst FAIR 54 43 67 CALM 29.99S Alma CLEAR 48 44 86 CALM 30.00R Waycross CLEAR 52 44 75 CALM 30.00F Jesup FAIR 50 41 71 CALM 30.00S Baxley FAIR 48 46 93 CALM 30.00S Brunswick CLEAR 49 44 84 SW3 30.00S Saint Simons CLEAR 55 49 80 SW5 29.99R $$ SCZ027-028-034-036>038-045-046-048>050-GAZ119-141-050400- ...Lake and Supplemental Coastal Observations... STATION/POSITION TIME TEMP WIND PRES WAVE SWELL AIR SEA DIR/SP/G HT/PER HT/PER/DIR (UTC) (F) (DEG/KT/KT) (MB) (FT/S) (FT/S/D) Winyah Bay 0230 52 270/ 2 1014.0R Lake Murray 0230 59 320/ 1/ 3 N/A Chrlstn Harbor 0242 56 58 230/ 6/ 8 1014.6R ACE Basin NERRS 0245 50 CALM 1015.0S Fort Pulaski 0242 55 58 220/ 4/ 5 1015.7R Sapelo Island 0300 53 220/ 3 1015.0 $$ ANZ835-935-AMZ111-154-330-350-352-354-370-450-454-472-050400- ...C-MAN and Buoy Observations... STATION/POSITION TIME TEMP WIND PRES WAVE SWELL AIR SEA DIR/SP/G HT/PER HT/PER/DIR (UTC) (F) (DEG/KT/KT) (MB) (FT/S) (FT/S/D) Buoy 41004 NOT AVBL Buoy 41008 0250 57 58 200/ 4/ 4 1015.4S 3/ 8 3/ 80/ 8 Folly Beach CMAN 0300 55 240/ 7/ 8 1015.1R Capers Nearshore 0238 57 56 230/ 8/ 10 1014.0R Fripp Nearshore 0308 57 58 220/ 10/ 16 1014.3S STATION/POSITION TIME TEMP WIND PRES WAVE SWELL AIR SEA DIR/SP/G HT/PER HT/PER/DIR (UTC) (F) (DEG/KT/KT) (MB) (FT/S) (FT/S/D) 5E St. Marys GA 0300 58 58 N/A 2/ 8 Frying Pan Buoy 0310 61 58 270/ 12/ 16 1012.4 Buoy 41025 0310 59 71 N/A Cape Lookout NC 0300 56 40/ 3/ 4 1013.0R Buoy 41002 NOT AVBL Buoy 41010 0310 69 360/ 12/ 16 1014.5 St Augustine FL 0300 57 62 240/ 2/ 3 1016.1R $$

USA.gov is the U.S. government's official web portal to all federal, state and local government web resources and services.